(296053) = 2009 AK28 = 2007 TV306

Discovered at Kitt Peak on 2009-01-08 by Spacewatch.

Orbit

Orbit type: Main Belt

Note: WebGL enabled browser required.

epoch2023-09-13.0
epoch JD2460200.5
perihelion date2020-02-12.00069
perihelion JD2458891.50069
argument of perihelion (°)299.76159
ascending node (°)159.43268
inclination (°)1.06432
eccentricity0.1581735
perihelion distance (AU)2.6693042
Tisserand w.r.t. Jupiter3.2
ΔV w.r.t. Earth (km/sec)10.2
semimajor axis (AU)3.1708482
mean anomaly (°)228.49678
mean daily motion (°/day)0.17455840
aphelion distance (AU)3.672
period (years)5.65
P-vector [x]-0.15983513
P-vector [y]0.91197988
P-vector [z]0.37781666
Q-vector [x]-0.98712216
Q-vector [y]-0.15019168
Q-vector [z]-0.05506640
absolute magnitude16.69
phase slope0.15
uncertainty0
referenceMPEC 2023-R06
observations used140
oppositions13
arc length (days)9796
first opposition used1996
last opposition used2023
residual rms (arc-secs)0.87
perturbers coarse indicatorM-v
perturbers precise indicator003Ek
first observation date used1996-11-07.0
last observation date used2023-09-03.0
computer nameMPCLINUX
JD of orbit computation2456639.543704
perihelion JD uncertainty (days)1.8236E-04
argument of perihelion uncertainty (°)3.5162E-04
ascending node uncertainty (°)3.4924E-04
inclination uncertainty (°)6.1828E-06
eccentricity uncertainty 5.6933E-08
perihelion distance uncertainty (AU)1.8644E-07
Minimum Orbit Intersection Distances (in AU)
for orbit epoch: 2460200.5, reference: E2023-R06
Mercury2.35899
Venus1.95081
Earth1.68504
Mars1.06088
Jupiter1.49419
Saturn6.33832
Uranus15.3645
Neptune26.5807

Observations

152 total observations over interval: 1996 11 07.33069 – 2023 09 03.273816
These data are available for download (format description).

